User: anonymous   Login
Location: Unspecified
(0.0000°N, 0.0000°E)
Time: 10:32:51
(UTC+00:00)
Language:

USA 264 DEB - Orbit

View from above orbital plane
View from above orbital plane
View from above satellite
View from above satellite

Ground track
Ground track

The orbit data is extracted from the following two-line orbital elements,

1 40981U 15058R   18229.83825237 0.00000000  00000-0  00000-0 0    04
2 40981  63.4359 155.3934 0043000 171.3783 188.6217 13.40759358    09
Epoch (UTC): 17 August 2018 20:07:05
Eccentricity: 0.0043000
inclination: 63.4359°
perigee height: 1074 km
apogee height: 1138 km
right ascension of ascending node: 155.3934°
argument of perigee: 171.3783°
revolutions per day: 13.40759358
mean anomaly at epoch: 188.6217°
orbit number at epoch: 0

The dashed part of the orbit path shows where the satellite is in the earth's shadow,  

DLR